Hourly Weather Rudeevo

Today, 1 August, Sunday

Time Temperature Precipitation Wind Pressure Humidity
00:00 +15°C° 0 mm 2 mps 740 mmHg 96%
01:00 +15°C° 0 mm 2 mps 740 mmHg 97%
02:00 +14°C° 0 mm 2 mps 740 mmHg 97%
03:00 +15°C° 0 mm 2 mps 740 mmHg 96%
04:00 +15°C° 0 mm 2 mps 740 mmHg 95%
05:00 +15°C° 0 mm 1 mps 740 mmHg 94%
06:00 +17°C° 0 mm 2 mps 741 mmHg 84%
07:00 +19°C° 0 mm 3 mps 741 mmHg 74%
08:00 +22°C° 0 mm 3 mps 741 mmHg 63%
09:00 +22°C° 0.1 mm 4 mps 741 mmHg 64%
10:00 +22°C° 0.1 mm 5 mps 741 mmHg 65%
11:00 +22°C° 0.1 mm 6 mps 741 mmHg 67%
12:00 +21°C° 0.3 mm 5 mps 741 mmHg 72%
13:00 +21°C° 0.3 mm 5 mps 740 mmHg 77%
14:00 +20°C° 0.3 mm 5 mps 740 mmHg 82%
15:00 +21°C° 0.4 mm 4 mps 740 mmHg 82%
16:00 +21°C° 0.4 mm 4 mps 740 mmHg 82%
17:00 +21°C° 0.4 mm 3 mps 740 mmHg 83%
18:00 +20°C° 0.3 mm 3 mps 740 mmHg 87%
19:00 +19°C° 0.3 mm 3 mps 740 mmHg 90%
20:00 +18°C° 0.3 mm 2 mps 740 mmHg 94%
21:00 +18°C° 0 mm 2 mps 740 mmHg 95%
22:00 +17°C° 0 mm 2 mps 740 mmHg 95%
23:00 +17°C° 0 mm 2 mps 740 mmHg 95%

Tomorrow, 2 August, Monday

Time Temperature Precipitation Wind Pressure Humidity
00:00 +16°C° 0 mm 2 mps 741 mmHg 94%
01:00 +16°C° 0 mm 1 mps 741 mmHg 92%
02:00 +16°C° 0 mm 1 mps 741 mmHg 91%
03:00 +16°C° 0 mm 1 mps 741 mmHg 90%
04:00 +16°C° 0 mm 1 mps 741 mmHg 89%
05:00 +16°C° 0 mm 1 mps 741 mmHg 87%
06:00 +19°C° 0 mm 1 mps 741 mmHg 80%
07:00 +21°C° 0 mm 1 mps 741 mmHg 73%
08:00 +21°C° 0 mm 2 mps 740 mmHg 66%
09:00 +24°C° 0 mm 2 mps 740 mmHg 57%
10:00 +26°C° 0 mm 3 mps 740 mmHg 49%
11:00 +27°C° 0 mm 3 mps 739 mmHg 41%
12:00 +27°C° 0 mm 3 mps 738 mmHg 46%
13:00 +27°C° 0 mm 2 mps 738 mmHg 51%
14:00 +27°C° 0 mm 2 mps 737 mmHg 56%
15:00 +26°C° 0.9 mm 2 mps 736 mmHg 65%
16:00 +25°C° 0.9 mm 3 mps 735 mmHg 74%
17:00 +23°C° 0.9 mm 4 mps 734 mmHg 83%
18:00 +22°C° 3.9 mm 3 mps 734 mmHg 88%
19:00 +20°C° 3.9 mm 3 mps 734 mmHg 92%
20:00 +19°C° 3.9 mm 2 mps 734 mmHg 96%
21:00 +18°C° 0 mm 3 mps 734 mmHg 96%
22:00 +18°C° 0 mm 4 mps 734 mmHg 95%
23:00 +17°C° 0 mm 5 mps 733 mmHg 95%

Day after tomorrow, 3 August, Tuesday

Time Temperature Precipitation Wind Pressure Humidity
00:00 +16°C° 0 mm 5 mps 734 mmHg 94%
01:00 +16°C° 0 mm 5 mps 734 mmHg 93%
02:00 +15°C° 0 mm 5 mps 735 mmHg 92%
03:00 +15°C° 0 mm 5 mps 735 mmHg 90%
04:00 +15°C° 0 mm 5 mps 736 mmHg 87%
05:00 +15°C° 0 mm 4 mps 737 mmHg 85%
06:00 +17°C° 0 mm 4 mps 737 mmHg 82%
07:00 +17°C° 0 mm 4 mps 738 mmHg 79%
08:00 +18°C° 0 mm 4 mps 738 mmHg 76%
09:00 +19°C° 0 mm 4 mps 738 mmHg 70%
10:00 +20°C° 0 mm 4 mps 739 mmHg 64%
11:00 +21°C° 0 mm 4 mps 739 mmHg 58%
12:00 +22°C° 0 mm 4 mps 739 mmHg 52%
13:00 +23°C° 0 mm 5 mps 739 mmHg 45%
14:00 +25°C° 0 mm 5 mps 739 mmHg 38%
15:00 +23°C° 0 mm 4 mps 739 mmHg 43%
16:00 +22°C° 0 mm 4 mps 740 mmHg 48%
17:00 +21°C° 0 mm 3 mps 740 mmHg 53%
18:00 +19°C° 0 mm 3 mps 740 mmHg 62%
19:00 +18°C° 0 mm 2 mps 741 mmHg 70%
20:00 +16°C° 0 mm 2 mps 741 mmHg 79%
21:00 +15°C° 0 mm 2 mps 741 mmHg 81%
22:00 +15°C° 0 mm 2 mps 742 mmHg 83%
23:00 +15°C° 0 mm 2 mps 742 mmHg 85%

4 August, Wednesday

Time Temperature Precipitation Wind Pressure Humidity
00:00 +14°C° 0 mm 2 mps 743 mmHg 87%
01:00 +13°C° 0 mm 2 mps 743 mmHg 90%
02:00 +12°C° 0 mm 1 mps 743 mmHg 92%
03:00 +12°C° 0 mm 1 mps 744 mmHg 91%
04:00 +12°C° 0 mm 1 mps 744 mmHg 90%
05:00 +12°C° 0 mm 1 mps 744 mmHg 89%
06:00 +14°C° 0 mm 1 mps 745 mmHg 81%
07:00 +15°C° 0 mm 2 mps 745 mmHg 72%
08:00 +17°C° 0 mm 2 mps 745 mmHg 63%
09:00 +18°C° 0 mm 2 mps 746 mmHg 56%
10:00 +19°C° 0 mm 3 mps 746 mmHg 50%
11:00 +20°C° 0 mm 3 mps 746 mmHg 43%
12:00 +21°C° 0 mm 3 mps 746 mmHg 40%
13:00 +21°C° 0 mm 3 mps 746 mmHg 36%
14:00 +22°C° 0 mm 3 mps 746 mmHg 33%
15:00 +22°C° 0 mm 3 mps 747 mmHg 35%
16:00 +21°C° 0 mm 2 mps 747 mmHg 37%
17:00 +21°C° 0 mm 2 mps 747 mmHg 39%
18:00 +19°C° 0 mm 2 mps 747 mmHg 46%
19:00 +17°C° 0 mm 2 mps 747 mmHg 53%
20:00 +15°C° 0 mm 2 mps 748 mmHg 60%
21:00 +14°C° 0 mm 1 mps 748 mmHg 63%
22:00 +13°C° 0 mm 1 mps 748 mmHg 66%
23:00 +12°C° 0 mm 1 mps 749 mmHg 69%

5 August, Thursday

Time Temperature Precipitation Wind Pressure Humidity
00:00 +12°C° 0 mm 1 mps 749 mmHg 69%
01:00 +12°C° 0 mm 1 mps 749 mmHg 70%
02:00 +12°C° 0 mm 1 mps 749 mmHg 71%
03:00 +12°C° 0 mm 1 mps 749 mmHg 72%
04:00 +12°C° 0 mm 1 mps 749 mmHg 73%
05:00 +12°C° 0 mm 1 mps 749 mmHg 74%
06:00 +14°C° 0 mm 2 mps 749 mmHg 66%
07:00 +16°C° 0 mm 2 mps 749 mmHg 59%
08:00 +18°C° 0 mm 2 mps 749 mmHg 51%
09:00 +19°C° 0 mm 2 mps 749 mmHg 48%
10:00 +20°C° 0 mm 2 mps 749 mmHg 44%
11:00 +21°C° 0 mm 3 mps 749 mmHg 40%
12:00 +23°C° 0 mm 2 mps 749 mmHg 40%
13:00 +23°C° 0 mm 2 mps 748 mmHg 39%
14:00 +24°C° 0 mm 2 mps 748 mmHg 38%
15:00 +23°C° 0 mm 2 mps 748 mmHg 45%
16:00 +21°C° 0 mm 2 mps 748 mmHg 51%
17:00 +21°C° 0 mm 1 mps 748 mmHg 58%
18:00 +20°C° 0 mm 1 mps 748 mmHg 59%
19:00 +19°C° 0 mm 1 mps 748 mmHg 59%
20:00 +18°C° 0 mm 1 mps 748 mmHg 59%
21:00 +18°C° 0 mm 1 mps 748 mmHg 61%
22:00 +16°C° 0 mm 1 mps 748 mmHg 62%
23:00 +15°C° 0 mm 1 mps 748 mmHg 63%

6 August, Friday

Time Temperature Precipitation Wind Pressure Humidity
00:00 +15°C° 0 mm 2 mps 748 mmHg 63%
01:00 +14°C° 0 mm 2 mps 748 mmHg 63%
02:00 +14°C° 0 mm 2 mps 747 mmHg 63%
03:00 +14°C° 0 mm 2 mps 748 mmHg 64%
04:00 +13°C° 0 mm 2 mps 748 mmHg 64%
05:00 +13°C° 0 mm 2 mps 748 mmHg 65%
06:00 +15°C° 0 mm 2 mps 748 mmHg 60%
07:00 +17°C° 0 mm 3 mps 748 mmHg 55%
08:00 +18°C° 0 mm 3 mps 748 mmHg 51%
09:00 +20°C° 0 mm 3 mps 747 mmHg 49%
10:00 +21°C° 0 mm 4 mps 747 mmHg 47%
11:00 +22°C° 0 mm 4 mps 747 mmHg 45%
12:00 +22°C° 0 mm 4 mps 747 mmHg 46%
13:00 +22°C° 0 mm 4 mps 747 mmHg 48%
14:00 +22°C° 0 mm 4 mps 747 mmHg 49%
15:00 +20°C° 0.2 mm 3 mps 747 mmHg 61%
16:00 +19°C° 0.2 mm 3 mps 747 mmHg 73%
17:00 +17°C° 0.2 mm 2 mps 747 mmHg 86%
18:00 +16°C° 0.1 mm 2 mps 747 mmHg 89%
19:00 +16°C° 0.1 mm 2 mps 746 mmHg 92%
20:00 +15°C° 0.1 mm 2 mps 746 mmHg 95%
21:00 +14°C° 0 mm 3 mps 746 mmHg 96%
22:00 +14°C° 0 mm 3 mps 746 mmHg 96%
23:00 +16°C° 0 mm 3 mps 746 mmHg 96%
Show more

We Need Your Consent

Meteoprog and our Service Providers may store and access personal data such as cookies, device identifiers or other similar technologies on your device and process such data to personalise content and ads, as well as provide social media features and to analyse the traffic.

  • Store and/or access information on your device

    Cookies, device identifiers or other information can be stored or accessed on your device for the purposes indicated above.

  • Personalised ads and content, ad and content measurement, audience insights, and products development

    Ads and content can be personalised based on a profile. More data can be added to better personalise ads and content. Ad and content performance can be measured. Insights about the audience who saw the ads and content can be derived. Such data can be used to develop or improve user’s experience, systems and software.

By clicking ‘I Agree’ you will allow the use of indicated cookies, device identifiers, web beacons or other similar technologies. Your settings can be changed in the browser on your device.

For certain purposes, legitimate interests may be relied on, rather than consent. You can read more about this in our Privacy and Cookie Policy.